Wind_Speed
16 17 19 21 21 21 21 22 23 22 19 18 19 20 20 19 18 18 18 17 18 18 19 20 19 18 17 17 18 18 18 18 17 16 16 15 14 13 12 12 11 10
15 15 17 19 20 21 21 22 23 22 19 18 19 20 20 20 20 20 18 18 19 19 18 20 20 19 18 18 18 18 18 18 17 16 15 14 14 13 12 12 10 9
14 15 16 18 19 20 21 22 23 22 20 18 18 19 21 21 20 19 18 18 18 17 18 20 21 20 19 19 19 18 18 17 17 16 15 14 14 13 13 12 11 10
14 15 16 18 19 20 21 22 23 22 20 19 18 18 20 20 19 19 18 18 17 17 18 20 21 21 20 19 19 18 17 16 16 16 15 15 15 14 14 13 13 11
15 15 17 19 21 22 22 22 22 21 21 20 18 18 20 21 20 20 19 18 17 17 18 19 20 20 19 19 18 17 16 16 16 16 16 16 15 15 14 14 13 12
17 17 18 18 20 21 22 21 21 21 21 20 19 19 20 21 21 20 20 18 17 17 18 20 20 18 18 17 17 16 16 15 16 16 16 15 14 13 13 13 13 12
14 16 18 18 17 19 20 20 21 22 21 20 20 20 21 22 22 21 20 18 17 17 18 19 18 17 17 17 16 16 16 15 15 15 14 13 12 12 12 12 12 12
12 13 15 16 16 19 20 20 21 22 21 20 21 22 22 22 22 21 21 19 18 18 19 19 18 17 18 17 17 17 16 15 15 14 12 12 11 11 11 12 12 12
12 11 13 16 18 20 20 20 20 21 21 21 21 22 22 22 21 21 21 19 18 19 20 19 18 18 18 17 17 17 16 15 14 13 12 11 11 11 11 11 11 11
13 12 14 16 19 20 20 19 20 21 21 21 22 22 22 22 21 21 21 20 19 20 19 19 18 17 17 17 17 16 15 15 14 13 12 11 10 9 9 10 10 11
14 15 16 17 18 19 19 18 19 21 22 22 23 23 22 22 22 21 21 20 20 18 17 17 16 15 16 17 18 17 15 14 13 13 13 11 10 9 9 10 11 12
15 17 17 16 16 16 16 17 19 22 24 24 24 23 23 22 22 22 21 20 18 16 16 15 15 15 16 17 17 17 16 14 14 14 12 11 10 10 10 11 11 12
13 17 18 15 13 14 14 16 20 23 25 26 26 24 24 23 22 22 21 19 17 15 15 15 15 16 16 16 17 17 16 15 15 14 12 12 12 11 11 11 11 12
10 14 18 15 13 15 16 17 21 24 26 27 26 25 24 23 23 23 22 20 18 17 16 16 16 17 17 16 16 16 16 15 15 14 13 13 13 12 11 11 11 11
8 10 14 15 14 17 19 20 23 26 27 28 27 25 24 23 23 24 23 21 19 17 16 16 17 17 16 16 16 15 15 15 14 14 13 13 13 13 12 11 11 11
8 7 11 15 16 18 20 21 24 27 28 29 29 27 25 24 24 23 21 20 18 16 17 17 17 17 17 16 15 15 15 14 14 13 13 13 14 14 13 12 12 12
13 8 9 13 15 17 20 22 26 28 29 30 31 28 26 25 23 22 21 19 17 17 17 18 18 18 17 16 15 13 13 13 14 15 15 15 15 14 13 13 13 14
18 11 8 10 12 16 20 24 27 30 31 32 31 29 27 26 23 21 20 20 19 19 19 19 19 18 17 16 14 13 12 12 14 16 16 15 14 12 12 14 16 17
19 12 8 8 9 12 19 25 28 31 33 31 30 29 28 26 24 20 19 20 21 21 20 20 19 18 17 16 14 13 12 12 15 16 15 14 13 13 14 17 18 18
19 12 9 9 11 13 19 25 27 30 33 31 29 30 29 27 25 21 20 22 23 21 20 20 19 18 17 16 14 14 12 12 14 16 15 14 15 16 18 19 18 17
18 13 10 10 13 16 21 26 27 28 31 32 30 31 31 29 27 23 21 23 23 22 21 20 18 17 16 15 15 14 13 12 14 16 16 17 18 19 20 18 16 15
14 12 9 10 13 17 22 26 27 28 30 31 32 33 32 30 28 25 23 23 23 21 20 19 18 17 15 15 16 14 13 14 15 15 16 17 19 21 20 18 15 13
10 9 7 5 6 12 20 25 27 28 30 31 32 32 31 30 29 27 24 24 23 21 19 19 18 17 16 14 14 14 13 14 15 15 16 16 18 21 21 19 16 13
7 6 6 6 7 3 8 18 24 28 30 29 28 30 29 27 28 28 25 25 24 21 20 20 19 18 15 13 13 14 13 13 14 15 15 16 18 18 17 16 15 13
7 3 4 6 8 8 4 4 8 17 24 24 23 26 26 24 26 28 26 25 24 21 21 21 20 18 15 13 13 13 12 12 14 15 17 18 17 16 14 13 13 12
12 4 3 6 7 6 6 7 8 5 10 14 16 20 22 22 23 25 25 25 23 22 22 22 22 21 18 14 13 12 11 12 14 16 18 17 15 14 13 12 10 10
Wind_Direction
277 263 253 252 253 253 254 256 259 261 261 261 259 251 241 236 231 224 220 220 222 222 217 214 215 215 215 214 212 211 211 211 210 208 207 209 213 214 218 222 224 219
269 257 250 250 248 250 254 257 257 257 258 262 262 251 239 235 230 224 221 221 219 220 218 213 212 213 212 210 208 208 209 207 203 202 204 207 209 213 215 215 217 214
255 248 247 249 248 248 250 254 256 255 255 259 260 249 238 234 228 220 220 222 218 218 218 213 208 208 208 207 206 207 204 200 198 200 202 204 208 211 212 212 212 211
254 249 246 246 248 248 249 254 256 252 250 254 254 245 234 227 221 217 217 221 221 218 216 212 207 204 203 204 205 204 200 197 199 202 204 206 210 212 212 211 212 211
250 255 253 246 244 246 249 256 260 253 246 248 246 237 227 219 217 216 215 218 220 219 216 213 209 204 202 203 203 201 199 200 203 206 210 212 213 214 212 210 211 211
246 252 254 249 245 247 249 252 256 250 242 240 235 226 220 216 216 215 213 214 216 217 216 212 209 206 204 204 203 203 204 206 208 210 212 215 215 215 213 210 211 211
258 253 255 255 252 251 249 247 247 241 234 232 224 217 216 217 215 211 209 213 214 214 213 208 205 205 207 208 207 207 209 209 211 212 213 215 215 214 213 212 211 210
266 257 259 263 258 252 249 246 242 234 229 228 217 211 213 214 212 208 206 211 213 212 210 205 203 205 209 211 210 209 210 211 210 210 211 212 212 212 212 213 212 209
262 251 250 255 254 249 246 244 238 229 225 222 212 207 211 211 210 208 207 210 211 209 208 204 203 207 211 211 209 208 209 210 209 207 208 211 211 212 212 211 209 206
267 253 248 252 252 250 249 244 234 226 220 213 207 207 210 209 209 210 210 209 208 206 204 202 203 208 211 211 209 207 207 209 208 206 205 206 209 211 210 206 203 202
265 258 255 256 256 258 261 253 235 224 217 209 206 208 209 209 209 210 210 209 206 203 201 200 203 209 213 213 209 206 206 207 206 204 202 200 201 203 203 200 199 198
261 255 253 252 253 258 262 251 231 220 213 208 207 207 205 207 209 209 209 206 201 201 201 203 209 214 216 214 209 204 203 204 204 202 199 196 196 196 197 197 197 197
272 255 248 244 246 249 249 238 223 213 210 209 208 205 202 205 208 207 204 199 197 202 206 209 215 217 214 209 205 203 202 203 201 197 193 191 192 192 191 193 194 195
295 262 247 241 240 242 240 231 217 210 208 208 208 204 202 206 208 203 196 192 197 206 210 211 213 211 205 200 198 197 197 196 193 188 186 187 187 185 185 189 189 189
303 268 251 243 237 234 233 225 214 209 207 205 203 199 200 206 206 198 192 192 199 209 211 207 204 200 194 189 187 185 184 184 184 183 185 187 186 182 182 185 185 185
319 272 250 243 235 229 229 222 213 208 205 201 198 196 199 204 198 191 191 197 206 212 206 198 193 188 184 180 178 178 180 183 186 186 188 189 186 183 183 181 178 179
339 302 257 247 238 229 226 221 211 205 200 197 196 197 199 198 191 188 194 203 212 210 199 192 187 183 180 178 176 178 183 189 190 187 188 189 185 183 183 175 169 169
341 322 288 265 247 228 222 220 210 199 195 194 195 195 195 191 187 192 200 203 203 200 193 190 187 182 180 180 178 178 182 186 183 181 185 186 181 179 175 166 161 162
344 335 321 303 278 244 227 221 210 196 190 192 193 192 190 187 185 191 196 193 190 190 191 189 185 183 183 182 180 176 175 177 177 178 183 181 174 169 165 160 158 159
351 344 324 304 291 269 236 219 209 198 190 190 192 190 187 184 184 186 185 184 183 185 188 187 184 184 185 184 182 175 169 171 175 178 179 174 167 164 161 159 159 163
349 341 312 273 262 255 233 215 206 199 193 191 191 188 185 184 185 185 181 181 183 184 185 185 183 183 185 185 184 180 174 173 173 174 175 171 166 164 162 163 165 169
350 345 318 271 243 228 218 210 205 201 196 193 191 189 189 189 186 184 181 181 184 185 184 185 184 181 183 184 184 185 184 178 173 170 170 168 167 168 168 169 169 167
7 15 11 327 269 222 206 200 202 201 196 194 193 192 196 195 186 180 180 181 184 185 183 185 186 183 183 185 186 188 187 184 181 177 174 174 176 176 173 170 168 163
10 35 59 51 23 340 207 191 192 192 191 195 197 193 196 195 180 174 180 183 182 182 181 183 186 184 182 186 188 188 189 190 189 185 184 187 187 183 176 166 159 157
1 30 87 91 63 36 36 131 163 179 185 193 194 187 189 188 173 171 180 180 175 176 179 182 183 180 179 181 176 178 189 199 200 196 193 189 184 179 172 163 159 162
16 18 114 123 110 101 102 81 62 104 166 177 176 172 175 173 167 171 178 174 170 176 181 182 180 176 173 171 165 167 183 196 198 196 188 176 165 162 162 163 167 173
Height
1514 1513 1513 1513 1512 1511 1511 1511 1512 1513 1514 1514 1515 1515 1517 1519 1521 1522 1523 1525 1527 1528 1529 1531 1532 1533 1534 1536 1537 1539 1541 1542 1544 1546 1547 1549 1550 1552 1553 1554 1555 1556
1511 1510 1511 1511 1510 1509 1510 1510 1510 1511 1512 1513 1514 1515 1516 1518 1519 1521 1522 1523 1525 1527 1528 1529 1531 1532 1533 1534 1536 1538 1539 1541 1543 1544 1546 1547 1549 1550 1551 1553 1554 1554
1508 1508 1508 1509 1508 1507 1508 1509 1509 1510 1511 1512 1512 1513 1515 1516 1518 1520 1521 1522 1524 1526 1528 1529 1530 1531 1532 1534 1535 1537 1538 1540 1542 1543 1544 1546 1547 1549 1550 1551 1552 1553
1506 1506 1506 1506 1506 1506 1507 1507 1507 1509 1510 1511 1511 1511 1513 1515 1517 1518 1520 1521 1522 1524 1526 1528 1529 1530 1531 1533 1534 1536 1538 1539 1541 1542 1543 1545 1546 1547 1549 1550 1551 1552
1503 1504 1504 1504 1504 1504 1505 1505 1507 1508 1508 1509 1509 1510 1511 1513 1515 1517 1518 1519 1521 1522 1524 1527 1529 1530 1530 1532 1533 1535 1537 1538 1539 1541 1542 1543 1545 1546 1547 1548 1549 1551
1500 1501 1501 1502 1502 1503 1503 1504 1505 1506 1506 1507 1507 1508 1510 1512 1514 1515 1517 1518 1520 1522 1523 1525 1528 1529 1529 1531 1532 1534 1535 1537 1538 1539 1541 1542 1543 1544 1546 1547 1548 1549
1497 1498 1499 1501 1502 1502 1502 1502 1502 1503 1503 1504 1505 1507 1509 1511 1512 1514 1516 1518 1519 1521 1522 1524 1526 1528 1529 1530 1531 1533 1534 1535 1537 1538 1539 1541 1542 1543 1544 1546 1547 1548
1496 1497 1499 1501 1502 1501 1501 1500 1500 1501 1501 1502 1503 1505 1507 1510 1512 1514 1515 1517 1518 1519 1521 1523 1525 1526 1528 1529 1530 1532 1533 1534 1536 1537 1538 1540 1541 1542 1543 1544 1546 1547
1495 1497 1498 1498 1499 1499 1499 1499 1499 1499 1500 1501 1502 1504 1506 1509 1511 1513 1515 1516 1517 1518 1520 1522 1524 1525 1527 1528 1529 1531 1532 1533 1535 1536 1537 1539 1540 1541 1543 1544 1545 1546
1493 1494 1494 1494 1495 1496 1496 1497 1497 1498 1499 1500 1502 1503 1506 1508 1510 1512 1514 1515 1516 1517 1519 1520 1522 1524 1526 1527 1529 1530 1532 1533 1534 1535 1536 1538 1539 1541 1542 1543 1544 1545
1491 1491 1491 1491 1492 1493 1494 1495 1496 1497 1498 1499 1500 1502 1504 1507 1509 1510 1512 1514 1515 1516 1517 1519 1521 1523 1525 1526 1528 1529 1531 1532 1533 1534 1536 1537 1539 1540 1541 1542 1543 1544
1489 1488 1488 1488 1489 1491 1493 1493 1494 1496 1497 1497 1499 1500 1502 1505 1507 1509 1511 1513 1515 1516 1517 1518 1520 1523 1524 1526 1527 1529 1530 1531 1533 1534 1535 1536 1538 1539 1540 1541 1542 1543
1487 1486 1485 1485 1486 1488 1489 1491 1492 1493 1494 1496 1496 1498 1500 1503 1506 1508 1510 1512 1514 1515 1516 1518 1520 1521 1523 1525 1527 1528 1529 1531 1532 1533 1534 1535 1537 1538 1540 1541 1542 1543
1485 1484 1483 1483 1484 1486 1487 1488 1490 1491 1492 1494 1495 1497 1499 1502 1504 1506 1508 1510 1513 1514 1515 1517 1519 1520 1522 1524 1526 1527 1529 1530 1531 1532 1533 1534 1536 1537 1539 1540 1541 1542
1483 1482 1482 1483 1483 1483 1484 1485 1487 1488 1490 1492 1494 1496 1498 1500 1503 1505 1507 1509 1511 1513 1514 1516 1518 1520 1522 1523 1525 1526 1528 1529 1530 1531 1533 1534 1535 1537 1538 1540 1541 1542
1482 1480 1480 1481 1481 1481 1481 1482 1483 1486 1488 1490 1492 1494 1496 1499 1501 1504 1507 1509 1510 1511 1513 1515 1517 1519 1521 1523 1525 1526 1527 1528 1529 1531 1532 1533 1534 1536 1537 1539 1541 1542
1480 1479 1478 1478 1478 1478 1479 1479 1480 1483 1485 1487 1490 1492 1494 1497 1500 1502 1505 1506 1508 1510 1513 1515 1517 1519 1521 1523 1524 1525 1526 1527 1529 1530 1531 1533 1534 1535 1537 1539 1540 1541
1479 1477 1476 1476 1476 1476 1476 1476 1478 1480 1482 1485 1487 1490 1493 1496 1499 1501 1503 1504 1507 1510 1513 1515 1517 1519 1521 1523 1524 1525 1526 1527 1528 1530 1531 1532 1533 1535 1537 1538 1540 1541
1476 1475 1474 1474 1474 1474 1474 1475 1476 1478 1481 1484 1486 1489 1492 1495 1498 1500 1502 1504 1507 1510 1513 1515 1517 1519 1521 1523 1524 1525 1526 1527 1528 1529 1531 1532 1533 1535 1537 1538 1540 1541
1475 1474 1473 1473 1473 1473 1474 1475 1475 1477 1480 1483 1485 1488 1491 1494 1498 1500 1502 1504 1507 1510 1513 1515 1517 1519 1522 1523 1524 1525 1526 1527 1528 1529 1531 1532 1533 1535 1537 1538 1540 1541
1476 1475 1473 1473 1473 1473 1473 1474 1475 1477 1480 1482 1485 1487 1491 1494 1498 1500 1502 1504 1507 1511 1513 1516 1517 1519 1521 1523 1524 1525 1526 1527 1528 1529 1530 1532 1533 1535 1536 1538 1539 1541
1478 1476 1475 1474 1474 1473 1473 1473 1475 1477 1479 1481 1484 1487 1490 1493 1496 1500 1502 1505 1508 1511 1513 1516 1517 1519 1521 1523 1524 1525 1526 1527 1529 1530 1531 1532 1533 1534 1535 1537 1539 1541
1481 1479 1478 1477 1477 1476 1475 1474 1475 1477 1479 1482 1484 1487 1490 1492 1495 1499 1502 1505 1508 1511 1513 1515 1517 1519 1521 1523 1524 1525 1527 1528 1529 1530 1531 1532 1533 1534 1535 1537 1539 1541
1484 1482 1481 1480 1479 1479 1479 1477 1476 1477 1480 1483 1486 1488 1491 1493 1495 1498 1502 1505 1508 1510 1512 1515 1517 1519 1521 1522 1524 1525 1527 1528 1529 1530 1531 1532 1533 1535 1537 1538 1540 1542
1486 1485 1483 1482 1482 1482 1483 1483 1481 1481 1483 1485 1487 1490 1493 1496 1498 1499 1502 1505 1508 1510 1512 1514 1516 1519 1521 1522 1523 1525 1527 1528 1529 1530 1530 1531 1533 1535 1537 1539 1541 1542
1489 1488 1487 1485 1485 1485 1485 1486 1486 1486 1487 1488 1490 1492 1495 1499 1501 1502 1504 1506 1508 1511 1512 1514 1516 1518 1519 1522 1523 1525 1527 1528 1529 1529 1530 1531 1533 1535 1536 1539 1540 1542